Location: Montbazon
(47.2835°N, 0.6999°E)
Time: 06:10:07
(UTC+00:00)

Cosmos 1269 Rocket - Pass Details

Date: 08 November 2025
Orbit: 768 x 775 km, 74.1° (Epoch: 10 December)

Event Time Altitude Azimuth Distance (km) Brightness Sun altitude
Exits shadow 05:09:27 23° 313° (NW) 1,615 5.2 -17.4°
Maximum altitude 05:12:18 42° 256° (WSW) 1,096 4.3 -16.9°
Drops below altitude 10° 05:17:13 10° 187° (S) 2,316 6.5 -16.1°
Sets 05:19:41 0° 180° (S) 3,239 7.3 -15.7°
